HBLMA LSZG-LSGS

Flight info

Callsign HBLMA
Flight time N/A
Altitude 9000
Route FRIBU DCT GRANA DCT VP020 DCT VP015 DCT GS301
Aircraft DA42/L-SBDGRY/S

Departure

Time 2026-04-18 08:05
Airport Grenchen Airfield (LSZG)

Arrival

Time N/A
Airport Sion Airport (LSGS)
Time Latitude Longitude Altitude Speed Heading
2026-04-18 07:41 47.18212 7.41275 1413 ft 0 kts 246°
2026-04-18 08:00 47.18196 7.41263 1414 ft 8 kts 155°
2026-04-18 08:01 47.18164 7.41321 1410 ft 13 kts 66°
2026-04-18 08:01 47.18206 7.41458 1410 ft 15 kts 67°
2026-04-18 08:01 47.18248 7.41589 1411 ft 15 kts 66°
2026-04-18 08:01 47.18267 7.41737 1406 ft 16 kts 104°
2026-04-18 08:02 47.18249 7.41833 1405 ft 0 kts 105°
2026-04-18 08:03 47.18239 7.41889 1404 ft 13 kts 105°
2026-04-18 08:03 47.18269 7.42065 1407 ft 24 kts 64°
2026-04-18 08:03 47.18335 7.42269 1408 ft 12 kts 58°
2026-04-18 08:04 47.18337 7.42288 1402 ft 2 kts 253°
2026-04-18 08:04 47.18294 7.42142 1409 ft 45 kts 245°
2026-04-18 08:04 47.18091 7.41483 1426 ft 90 kts 247°
2026-04-18 08:04 47.17825 7.40640 1699 ft 90 kts 244°
2026-04-18 08:05 47.17519 7.39805 1859 ft 101 kts 242°
2026-04-18 08:05 47.16911 7.39389 1980 ft 106 kts 163°
2026-04-18 08:05 47.16241 7.39762 2155 ft 106 kts 155°
2026-04-18 08:05 47.15923 7.40641 2218 ft 100 kts 84°
2026-04-18 08:06 47.16293 7.41501 2215 ft 105 kts 36°
2026-04-18 08:06 47.16931 7.42075 2186 ft 109 kts 46°
2026-04-18 08:06 47.17276 7.43033 2079 ft 105 kts 68°
2026-04-18 08:06 47.17547 7.43995 1916 ft 101 kts 63°
2026-04-18 08:07 47.18116 7.44405 1799 ft 98 kts 348°
2026-04-18 08:07 47.18676 7.43913 1782 ft 90 kts 296°
2026-04-18 08:07 47.18569 7.43018 1605 ft 96 kts 245°
2026-04-18 08:07 47.18305 7.42181 1408 ft 78 kts 247°
2026-04-18 08:08 47.18133 7.41624 1407 ft 46 kts 245°
2026-04-18 08:08 47.18025 7.41273 1409 ft 30 kts 244°
2026-04-18 08:08 47.18033 7.41149 1408 ft 12 kts 337°
2026-04-18 08:08 47.18100 7.41127 1407 ft 10 kts 83°
2026-04-18 08:09 47.18122 7.41243 1409 ft 12 kts 65°
2026-04-18 08:09 47.18166 7.41327 1410 ft 10 kts 68°
2026-04-18 08:09 47.18197 7.41358 1411 ft 5 kts 335°
2026-04-18 08:09 47.18228 7.41329 1413 ft 7 kts 276°
2026-04-18 08:10 47.18213 7.41277 1415 ft 0 kts 244°
2026-04-18 08:19 47.18211 7.41272 1415 ft 3 kts 245°
2026-04-18 08:19 47.18174 7.41276 1416 ft 9 kts 161°
2026-04-18 08:20 47.18169 7.41338 1414 ft 8 kts 69°
2026-04-18 08:20 47.18193 7.41416 1410 ft 9 kts 65°
2026-04-18 08:20 47.18218 7.41496 1410 ft 8 kts 66°
2026-04-18 08:20 47.18241 7.41570 1415 ft 8 kts 71°
2026-04-18 08:21 47.18266 7.41652 1413 ft 10 kts 68°
2026-04-18 08:21 47.18266 7.41743 1406 ft 1 kts 103°
2026-04-18 08:23 47.18261 7.41771 1407 ft 7 kts 105°
2026-04-18 08:23 47.18257 7.41795 1405 ft 0 kts 102°
2026-04-18 08:23 47.18250 7.41835 1405 ft 10 kts 105°
2026-04-18 08:24 47.18236 7.41951 1405 ft 13 kts 71°
2026-04-18 08:24 47.18271 7.42073 1408 ft 14 kts 66°
2026-04-18 08:24 47.18312 7.42203 1403 ft 9 kts 64°
2026-04-18 08:24 47.18337 7.42257 1402 ft 7 kts 69°
2026-04-18 08:25 47.18330 7.42262 1404 ft 0 kts 247°
2026-04-18 08:25 47.18310 7.42195 1403 ft 31 kts 245°
2026-04-18 08:25 47.18142 7.41649 1420 ft 81 kts 247°
2026-04-18 08:26 47.17871 7.40845 1629 ft 91 kts 243°
2026-04-18 08:26 47.17575 7.40011 1860 ft 96 kts 244°
2026-04-18 08:26 47.17264 7.39068 1982 ft 107 kts 246°
2026-04-18 08:26 47.16874 7.38163 2165 ft 105 kts 216°
2026-04-18 08:27 47.16169 7.38155 2273 ft 109 kts 148°
2026-04-18 08:27 47.15550 7.38733 2509 ft 104 kts 150°
2026-04-18 08:27 47.14905 7.39261 2674 ft 106 kts 153°
2026-04-18 08:27 47.14259 7.39738 2889 ft 106 kts 155°
2026-04-18 08:28 47.13588 7.40206 3067 ft 107 kts 154°
2026-04-18 08:28 47.13079 7.40939 3358 ft 109 kts 111°
2026-04-18 08:28 47.12958 7.42051 3648 ft 110 kts 97°
2026-04-18 08:28 47.12870 7.43145 3944 ft 110 kts 97°
2026-04-18 08:29 47.12753 7.44277 4218 ft 110 kts 100°
2026-04-18 08:29 47.12610 7.45389 4508 ft 115 kts 103°
2026-04-18 08:29 47.12411 7.46667 4500 ft 139 kts 105°
2026-04-18 08:29 47.12128 7.48084 4464 ft 149 kts 107°
2026-04-18 08:30 47.11935 7.49066 4469 ft 151 kts 105°
2026-04-18 08:30 47.11539 7.51003 4576 ft 151 kts 107°
2026-04-18 08:30 47.11334 7.51997 4526 ft 155 kts 106°
2026-04-18 08:30 47.11027 7.53518 4523 ft 157 kts 106°
2026-04-18 08:31 47.10493 7.54888 4527 ft 157 kts 133°
2026-04-18 08:31 47.09697 7.55982 4526 ft 157 kts 137°
2026-04-18 08:31 47.08878 7.57049 4523 ft 158 kts 138°
2026-04-18 08:31 47.08056 7.58113 4527 ft 158 kts 138°
2026-04-18 08:32 47.07235 7.59182 4526 ft 157 kts 138°
2026-04-18 08:32 47.06431 7.60225 4694 ft 147 kts 138°
2026-04-18 08:32 47.05693 7.61175 4935 ft 139 kts 138°
2026-04-18 08:32 47.04971 7.62102 5058 ft 140 kts 138°
2026-04-18 08:33 47.04236 7.63049 5168 ft 141 kts 138°
2026-04-18 08:33 47.03492 7.64008 5219 ft 145 kts 138°
2026-04-18 08:33 47.02723 7.64996 5223 ft 149 kts 138°
2026-04-18 08:33 47.01933 7.66015 5227 ft 153 kts 138°
2026-04-18 08:34 47.01125 7.67056 5229 ft 156 kts 138°
2026-04-18 08:34 47.00241 7.67966 5234 ft 157 kts 154°
2026-04-18 08:34 46.99232 7.68583 5230 ft 157 kts 158°
2026-04-18 08:34 46.98211 7.69168 5232 ft 157 kts 158°
2026-04-18 08:35 46.97190 7.69749 5225 ft 157 kts 158°
2026-04-18 08:35 46.96127 7.69957 5225 ft 158 kts 184°
2026-04-18 08:35 46.95029 7.69778 5226 ft 160 kts 187°
2026-04-18 08:35 46.93922 7.69559 5221 ft 159 kts 187°
2026-04-18 08:36 46.92827 7.69340 5238 ft 157 kts 187°
2026-04-18 08:36 46.91803 7.69139 5556 ft 141 kts 187°
2026-04-18 08:36 46.90820 7.68961 5650 ft 143 kts 187°
2026-04-18 08:36 46.89829 7.68785 5751 ft 143 kts 187°
2026-04-18 08:37 46.88849 7.68614 5850 ft 144 kts 187°
2026-04-18 08:37 46.87858 7.68439 5952 ft 144 kts 187°
2026-04-18 08:37 46.86865 7.68265 6049 ft 144 kts 187°
2026-04-18 08:37 46.85866 7.68094 6188 ft 145 kts 187°
2026-04-18 08:38 46.84869 7.67927 6411 ft 144 kts 187°
2026-04-18 08:38 46.83872 7.67765 6612 ft 144 kts 187°
2026-04-18 08:38 46.82873 7.67609 6785 ft 144 kts 187°
2026-04-18 08:38 46.81873 7.67443 6972 ft 145 kts 187°
2026-04-18 08:39 46.80878 7.67282 7148 ft 146 kts 187°
2026-04-18 08:39 46.79867 7.67133 7321 ft 146 kts 187°
2026-04-18 08:39 46.78849 7.66995 7515 ft 148 kts 187°
2026-04-18 08:39 46.77783 7.66851 7518 ft 157 kts 187°
2026-04-18 08:40 46.76687 7.66700 7519 ft 159 kts 187°
2026-04-18 08:40 46.75575 7.66546 7519 ft 161 kts 187°
2026-04-18 08:40 46.74454 7.66393 7519 ft 162 kts 187°
2026-04-18 08:40 46.73326 7.66244 7502 ft 163 kts 187°
2026-04-18 08:41 46.72205 7.66029 7527 ft 161 kts 192°
2026-04-18 08:41 46.71104 7.65697 7492 ft 163 kts 194°
2026-04-18 08:41 46.70007 7.65289 7508 ft 162 kts 196°
2026-04-18 08:41 46.68934 7.64847 7525 ft 162 kts 198°
2026-04-18 08:42 46.67871 7.64363 7610 ft 156 kts 202°
2026-04-18 08:42 46.66798 7.63977 7578 ft 163 kts 187°
2026-04-18 08:42 46.65668 7.63977 7599 ft 162 kts 173°
2026-04-18 08:42 46.64549 7.64175 7664 ft 158 kts 161°
2026-04-18 08:43 46.64272 7.65416 7623 ft 164 kts 53°
2026-04-18 08:43 46.64532 7.66988 7613 ft 162 kts 91°
2026-04-18 08:43 46.64497 7.68630 7565 ft 165 kts 92°
2026-04-18 08:43 46.64430 7.70305 7568 ft 165 kts 90°
2026-04-18 08:44 46.64395 7.71969 7557 ft 166 kts 98°
2026-04-18 08:44 46.64340 7.73613 7571 ft 165 kts 92°
2026-04-18 08:44 46.64318 7.75275 7592 ft 164 kts 88°
2026-04-18 08:44 46.64327 7.76946 7583 ft 165 kts 95°
2026-04-18 08:45 46.63962 7.78476 7715 ft 161 kts 121°
2026-04-18 08:45 46.63327 7.79847 7747 ft 163 kts 131°
2026-04-18 08:45 46.62377 7.80659 7813 ft 163 kts 167°
2026-04-18 08:45 46.61255 7.80947 7859 ft 163 kts 172°
2026-04-18 08:46 46.60325 7.81681 8088 ft 157 kts 119°
2026-04-18 08:46 46.59972 7.83201 8267 ft 154 kts 97°
2026-04-18 08:46 46.60031 7.84806 8104 ft 172 kts 100°
2026-04-18 08:46 46.59525 7.86369 8064 ft 171 kts 122°
2026-04-18 08:47 46.58953 7.87827 8311 ft 158 kts 118°
2026-04-18 08:47 46.58469 7.89191 8633 ft 150 kts 119°
2026-04-18 08:47 46.57955 7.90527 8782 ft 153 kts 119°
2026-04-18 08:47 46.57455 7.91815 9181 ft 140 kts 118°
2026-04-18 08:48 46.57001 7.93022 9562 ft 134 kts 121°
2026-04-18 08:48 46.56525 7.94145 9958 ft 126 kts 127°
2026-04-18 08:48 46.55910 7.94983 10334 ft 118 kts 144°
2026-04-18 08:48 46.55378 7.95881 10641 ft 119 kts 114°
2026-04-18 08:49 46.55221 7.97073 10928 ft 122 kts 91°
2026-04-18 08:49 46.55563 7.98153 11121 ft 128 kts 26°
2026-04-18 08:49 46.56390 7.98027 11298 ft 133 kts 315°
2026-04-18 08:49 46.56497 7.96761 11566 ft 133 kts 245°
2026-04-18 08:50 46.55722 7.96083 11808 ft 147 kts 179°
2026-04-18 08:50 46.54932 7.96961 11984 ft 156 kts 109°
2026-04-18 08:50 46.54523 7.98506 12014 ft 167 kts 114°
2026-04-18 08:50 46.53735 7.99724 12007 ft 176 kts 140°
2026-04-18 08:51 46.52794 8.00891 11993 ft 178 kts 141°
2026-04-18 08:51 46.51800 8.01963 11980 ft 179 kts 145°
2026-04-18 08:51 46.50780 8.03010 11909 ft 180 kts 146°
2026-04-18 08:51 46.49738 8.04011 11873 ft 180 kts 148°
2026-04-18 08:52 46.48672 8.04972 11767 ft 178 kts 150°
2026-04-18 08:52 46.47602 8.05878 11590 ft 180 kts 150°
2026-04-18 08:52 46.46524 8.06853 11286 ft 184 kts 147°
2026-04-18 08:52 46.45712 8.08119 11215 ft 172 kts 136°
2026-04-18 08:53 46.44694 8.08135 11210 ft 152 kts 234°
2026-04-18 08:53 46.44057 8.06993 11228 ft 150 kts 199°
2026-04-18 08:53 46.42970 8.06960 11128 ft 162 kts 176°
2026-04-18 08:53 46.41857 8.07131 11288 ft 161 kts 169°
2026-04-18 08:54 46.40776 8.07751 11187 ft 179 kts 155°
2026-04-18 08:54 46.39593 8.08478 11127 ft 186 kts 161°
2026-04-18 08:54 46.38402 8.09107 11228 ft 181 kts 163°
2026-04-18 08:54 46.37154 8.09358 11235 ft 185 kts 187°
2026-04-18 08:55 46.35954 8.08717 11218 ft 183 kts 209°
2026-04-18 08:55 46.34833 8.07849 11179 ft 183 kts 211°
2026-04-18 08:55 46.33748 8.06929 11225 ft 178 kts 216°
2026-04-18 08:55 46.32706 8.05953 11238 ft 178 kts 215°
2026-04-18 08:56 46.31655 8.05024 11275 ft 172 kts 215°
2026-04-18 08:56 46.30691 8.04143 11222 ft 160 kts 215°
2026-04-18 08:56 46.29765 8.03277 11201 ft 161 kts 214°
2026-04-18 08:56 46.28801 8.02511 11258 ft 157 kts 214°
2026-04-18 08:57 46.26861 8.00806 11267 ft 167 kts 210°
2026-04-18 08:57 46.25902 7.99911 11335 ft 161 kts 235°
2026-04-18 08:57 46.25226 7.98642 11307 ft 164 kts 210°
2026-04-18 08:58 46.24092 7.98346 11193 ft 169 kts 193°
2026-04-18 08:58 46.23219 7.97419 11223 ft 159 kts 225°
2026-04-18 08:58 46.22323 7.96433 11202 ft 160 kts 215°
2026-04-18 08:58 46.21440 7.95505 11219 ft 155 kts 221°
2026-04-18 08:59 46.20634 7.94479 11219 ft 154 kts 225°
2026-04-18 08:59 46.19839 7.93417 11219 ft 158 kts 225°
2026-04-18 08:59 46.19079 7.92284 11222 ft 159 kts 229°
2026-04-18 08:59 46.18294 7.91149 11222 ft 160 kts 226°
2026-04-18 09:00 46.17494 7.90024 11222 ft 160 kts 228°
2026-04-18 09:00 46.16729 7.88870 11231 ft 158 kts 229°
2026-04-18 09:00 46.15990 7.87740 11325 ft 155 kts 230°
2026-04-18 09:00 46.15227 7.86599 11316 ft 160 kts 227°
2026-04-18 09:01 46.14419 7.85462 11324 ft 164 kts 227°
2026-04-18 09:01 46.13624 7.84274 11319 ft 165 kts 228°
2026-04-18 09:01 46.12836 7.83109 11312 ft 159 kts 228°
2026-04-18 09:01 46.12070 7.81981 11279 ft 158 kts 227°
2026-04-18 09:02 46.11309 7.80820 11286 ft 163 kts 226°
2026-04-18 09:02 46.10486 7.79640 11223 ft 175 kts 225°
2026-04-18 09:02 46.09714 7.78367 11628 ft 157 kts 225°
2026-04-18 09:02 46.08626 7.77624 11311 ft 182 kts 209°
2026-04-18 09:03 46.07508 7.76790 11324 ft 176 kts 219°
2026-04-18 09:03 46.06667 7.75545 11198 ft 179 kts 234°
2026-04-18 09:03 46.06200 7.74003 11304 ft 157 kts 258°
2026-04-18 09:03 46.05876 7.72559 11341 ft 155 kts 236°
2026-04-18 09:04 46.04863 7.71919 11065 ft 172 kts 176°
2026-04-18 09:04 46.03804 7.71597 11116 ft 153 kts 224°
2026-04-18 09:04 46.02944 7.70678 11164 ft 158 kts 216°
2026-04-18 09:04 46.01989 7.69828 11197 ft 161 kts 214°
2026-04-18 09:05 46.01067 7.68925 11242 ft 163 kts 222°
2026-04-18 09:05 46.00152 7.67934 11368 ft 162 kts 220°
2026-04-18 09:05 45.99275 7.66975 11539 ft 156 kts 214°
2026-04-18 09:05 45.98306 7.66334 11969 ft 138 kts 231°
2026-04-18 09:06 45.98615 7.65168 11286 ft 177 kts 315°
2026-04-18 09:06 45.99018 7.63492 11331 ft 172 kts 279°
2026-04-18 09:06 45.99189 7.61853 11550 ft 160 kts 279°
2026-04-18 09:06 45.99323 7.60309 11636 ft 153 kts 282°
2026-04-18 09:07 45.99502 7.58797 11670 ft 154 kts 284°
2026-04-18 09:07 45.99825 7.57307 11708 ft 158 kts 296°
2026-04-18 09:07 45.99969 7.55678 11383 ft 185 kts 255°
2026-04-18 09:07 45.99503 7.54014 11533 ft 168 kts 272°
2026-04-18 09:08 46.00345 7.53032 11070 ft 183 kts 329°
2026-04-18 09:08 46.00726 7.51352 10984 ft 169 kts 298°
2026-04-18 09:08 46.01589 7.50527 11264 ft 158 kts 339°
2026-04-18 09:08 46.02219 7.49369 11224 ft 169 kts 262°
2026-04-18 09:09 46.01265 7.48650 11181 ft 182 kts 159°
2026-04-18 09:09 46.00301 7.49830 11238 ft 181 kts 134°
2026-04-18 09:09 45.99501 7.51160 11403 ft 176 kts 114°
2026-04-18 09:09 45.99285 7.52872 11534 ft 170 kts 92°
2026-04-18 09:10 45.99095 7.54424 12075 ft 149 kts 118°
2026-04-18 09:10 45.98218 7.55092 12253 ft 159 kts 180°
2026-04-18 09:10 45.97296 7.55935 10855 ft 208 kts 139°
2026-04-18 09:10 45.95920 7.56369 10719 ft 189 kts 174°
2026-04-18 09:11 45.94762 7.56960 10893 ft 175 kts 145°
2026-04-18 09:11 45.93815 7.57865 11248 ft 153 kts 149°
2026-04-18 09:11 45.92865 7.58458 11620 ft 143 kts 172°
2026-04-18 09:11 45.91852 7.58162 11622 ft 165 kts 188°
2026-04-18 09:12 45.90746 7.58784 10773 ft 192 kts 123°
2026-04-18 09:12 45.90381 7.60742 10069 ft 198 kts 103°
2026-04-18 09:12 45.89994 7.62593 9713 ft 178 kts 103°
2026-04-18 09:12 45.89889 7.64286 9660 ft 167 kts 89°
2026-04-18 09:13 45.89903 7.65907 9686 ft 160 kts 86°
2026-04-18 09:13 45.90018 7.67536 9482 ft 165 kts 78°
2026-04-18 09:13 45.90196 7.69151 9360 ft 164 kts 81°
2026-04-18 09:13 45.90279 7.70743 9520 ft 160 kts 94°
2026-04-18 09:14 45.89822 7.72175 9694 ft 162 kts 129°
2026-04-18 09:14 45.89240 7.73530 9768 ft 162 kts 94°
2026-04-18 09:14 45.89475 7.75037 10075 ft 148 kts 68°
2026-04-18 09:14 45.89778 7.76437 10444 ft 143 kts 77°
2026-04-18 09:15 45.89756 7.77851 10833 ft 140 kts 104°
2026-04-18 09:15 45.89291 7.79118 10956 ft 153 kts 109°
2026-04-18 09:15 45.89283 7.80674 10967 ft 158 kts 80°
2026-04-18 09:15 45.89410 7.82217 11134 ft 158 kts 80°
2026-04-18 09:16 45.89527 7.83783 11315 ft 158 kts 80°
2026-04-18 09:16 45.89646 7.85340 11502 ft 156 kts 86°
2026-04-18 09:16 45.89719 7.86880 11528 ft 161 kts 84°
2026-04-18 09:16 45.89984 7.88521 11360 ft 173 kts 60°
2026-04-18 09:17 45.90614 7.89998 11376 ft 175 kts 59°
2026-04-18 09:17 45.91159 7.91571 11206 ft 181 kts 60°
2026-04-18 09:17 45.91677 7.93212 11200 ft 180 kts 63°
2026-04-18 09:17 45.92190 7.94828 11199 ft 176 kts 64°
2026-04-18 09:18 45.92679 7.96423 11191 ft 173 kts 63°
2026-04-18 09:18 45.93153 7.98001 11198 ft 172 kts 62°
2026-04-18 09:18 45.93639 7.99584 11200 ft 174 kts 63°
2026-04-18 09:18 45.94132 8.01174 11199 ft 174 kts 64°
2026-04-18 09:19 45.94623 8.02757 11201 ft 173 kts 63°
2026-04-18 09:19 45.95106 8.04350 11195 ft 174 kts 62°
2026-04-18 09:19 45.95594 8.05938 11194 ft 172 kts 64°
2026-04-18 09:19 45.96090 8.07507 11196 ft 173 kts 63°
2026-04-18 09:20 45.96416 8.08555 11201 ft 174 kts 62°
2026-04-18 09:20 45.96907 8.10148 11192 ft 175 kts 63°
2026-04-18 09:20 45.97561 8.12265 11188 ft 175 kts 64°
2026-04-18 09:20 45.98060 8.13853 11188 ft 174 kts 63°
2026-04-18 09:21 45.98560 8.15470 11029 ft 182 kts 62°
2026-04-18 09:21 45.98905 8.16594 10871 ft 189 kts 63°
2026-04-18 09:21 45.99448 8.18311 10523 ft 190 kts 62°
2026-04-18 09:21 46.00055 8.20061 10125 ft 196 kts 63°
2026-04-18 09:22 46.00620 8.21812 9859 ft 191 kts 69°
2026-04-18 09:22 46.00682 8.23694 9599 ft 189 kts 98°
2026-04-18 09:22 46.00417 8.25531 9330 ft 185 kts 103°
2026-04-18 09:22 46.00123 8.27317 9069 ft 181 kts 103°
2026-04-18 09:23 45.99834 8.29066 8820 ft 178 kts 103°
2026-04-18 09:23 45.99550 8.30792 8572 ft 176 kts 103°
2026-04-18 09:23 45.99272 8.32480 8322 ft 175 kts 103°
2026-04-18 09:23 45.98990 8.34183 8059 ft 176 kts 103°
2026-04-18 09:24 45.98702 8.35908 7812 ft 178 kts 103°
2026-04-18 09:24 45.98409 8.37642 7564 ft 179 kts 104°
2026-04-18 09:24 45.98076 8.39363 7319 ft 178 kts 108°
2026-04-18 09:24 45.97692 8.41054 7064 ft 177 kts 108°
2026-04-18 09:25 45.97307 8.42739 6827 ft 178 kts 108°
2026-04-18 09:25 45.96924 8.44427 6584 ft 177 kts 108°
2026-04-18 09:25 45.96542 8.46108 6327 ft 176 kts 108°
2026-04-18 09:25 45.96165 8.47772 6074 ft 175 kts 108°
2026-04-18 09:26 45.95790 8.49427 5824 ft 174 kts 108°
2026-04-18 09:26 45.95420 8.51070 5571 ft 172 kts 108°
2026-04-18 09:26 45.95053 8.52697 5321 ft 170 kts 108°
2026-04-18 09:26 45.94690 8.54310 5074 ft 169 kts 108°
2026-04-18 09:27 45.94691 8.55950 4964 ft 161 kts 74°
2026-04-18 09:27 45.95060 8.57415 4969 ft 152 kts 69°
2026-04-18 09:27 45.95442 8.58785 4962 ft 142 kts 68°
2026-04-18 09:27 45.95796 8.60032 4955 ft 132 kts 68°
2026-04-18 09:28 45.96134 8.61220 4950 ft 125 kts 68°
2026-04-18 09:28 45.96464 8.62373 4949 ft 124 kts 68°
2026-04-18 09:28 45.96789 8.63514 4949 ft 122 kts 68°
2026-04-18 09:28 45.97112 8.64639 4949 ft 121 kts 68°
2026-04-18 09:29 45.97434 8.65753 4951 ft 120 kts 68°
2026-04-18 09:29 45.97750 8.66845 4950 ft 119 kts 68°
2026-04-18 09:29 45.98072 8.67965 4882 ft 125 kts 68°
2026-04-18 09:29 45.98410 8.69145 4760 ft 130 kts 68°
2026-04-18 09:30 45.98759 8.70362 4625 ft 133 kts 68°
2026-04-18 09:30 45.99116 8.71600 4504 ft 135 kts 68°
2026-04-18 09:30 45.99430 8.72860 4452 ft 131 kts 84°
2026-04-18 09:30 45.99377 8.74134 4459 ft 126 kts 98°
2026-04-18 09:31 45.99256 8.75365 4456 ft 123 kts 101°
2026-04-18 09:31 45.99092 8.76562 4455 ft 121 kts 103°
2026-04-18 09:31 45.98928 8.77742 4453 ft 120 kts 102°
2026-04-18 09:31 45.98766 8.78910 4454 ft 121 kts 102°
2026-04-18 09:32 45.98594 8.80098 4451 ft 121 kts 105°
2026-04-18 09:32 45.98366 8.81269 4418 ft 124 kts 107°
2026-04-18 09:32 45.98113 8.82511 4250 ft 135 kts 107°
2026-04-18 09:32 45.97843 8.83814 4056 ft 137 kts 108°
2026-04-18 09:33 45.97584 8.85072 3875 ft 128 kts 108°
2026-04-18 09:33 45.97338 8.86290 3654 ft 123 kts 107°
2026-04-18 09:33 45.97111 8.87415 3439 ft 113 kts 108°
2026-04-18 09:33 45.96901 8.88446 3231 ft 106 kts 108°
2026-04-18 09:34 45.96700 8.89441 3025 ft 103 kts 108°
2026-04-18 09:34 45.96678 8.90449 2835 ft 107 kts 65°
2026-04-18 09:34 45.97178 8.91243 2650 ft 106 kts 44°
2026-04-18 09:34 45.97797 8.91735 2562 ft 104 kts 15°
2026-04-18 09:35 45.98487 8.92058 2534 ft 106 kts 18°
2026-04-18 09:35 45.99204 8.92408 2476 ft 110 kts 18°
2026-04-18 09:35 45.99891 8.92734 2459 ft 101 kts 17°
2026-04-18 09:35 46.00472 8.93263 2334 ft 98 kts 44°
2026-04-18 09:36 46.01004 8.93835 2186 ft 97 kts 11°
2026-04-18 09:36 46.01617 8.93484 1931 ft 98 kts 319°
2026-04-18 09:36 46.02035 8.92781 1673 ft 96 kts 284°
2026-04-18 09:36 46.01971 8.91878 1427 ft 91 kts 230°
2026-04-18 09:37 46.01392 8.91530 1149 ft 89 kts 198°
2026-04-18 09:37 46.00831 8.91265 920 ft 84 kts 198°
2026-04-18 09:37 46.00414 8.91065 900 ft 46 kts 199°
2026-04-18 09:37 46.00181 8.90938 897 ft 21 kts 199°
2026-04-18 09:38 46.00149 8.90831 897 ft 6 kts 309°
2026-04-18 09:38 46.00178 8.90824 897 ft 0 kts 12°
2026-04-18 09:38 46.00196 8.90832 897 ft 8 kts
2026-04-18 09:39 46.00212 8.90790 897 ft 3 kts 216°
2026-04-18 09:39 46.00181 8.90775 897 ft 5 kts 200°
2026-04-18 09:39 46.00178 8.90774 897 ft 0 kts 196°